Лоуэр-Лемингтон

Великобритания     52°00′22″N   1°41′14″W
темп.,
°C
ветер,
м/с
пор.,
м/с
влажн.,
%
обл.,
%
осадки,
мм/ч
давл.,
гПа
погр.,
м
13 апреля, вт
вт1301:000зсз11875 0.0 103310
04:00−1сз11926 0.0 103310
07:000ссз01835 0.0 103310
10:00+6зсз11665 0.0 1033469
13:00+9сз225731 0.0 10331370
16:00+10ссз225748 0.2 10321242
19:00+8ссз227474 0.2 103124
22:00+4ссв118485 0.0 103310
14 апреля, ср
ср1401:00+2сз118715 0.0 103310
04:00+1ссз229142 0.0 103315
07:00+1с229381 0.0 103350
10:00+5св3482100 0.0 1034395
13:00+9св346091 0.1 10331627
16:00+9всв455595 0.1 10331465
19:00+6всв46763 0.1 1033273
22:00+1в35915 0.0 103575
15 апреля, чт
чт1501:00−1всв11885 0.0 103510
04:00−2ссв22910 0.0 103510
07:00−2ссв22925 0.0 103544
10:00+5св45675 0.0 1035807
13:00+7св5660100 0.1 10331701
16:00+8св566195 0.3 10321467
19:00+6всв48748 0.5 1032348
22:00+1всв310915 0.0 1033177
16 апреля, пт
пт1601:00−2в22895 0.0 103323
04:00−2св22924 0.0 103311
07:00−2св22905 0.0 103434
10:00+6всв46584 0.0 1033766
13:00+9всв45495 0.0 10321506
16:00+10всв345148 0.0 10311634
19:00+7всв36746 0.0 1030156
22:00+2в33904 0.0 103249
17 апреля, сб
сб1701:00−1в22900 0.0 103111
04:00−1ссв22890 0.0 103110
07:00−1ссв22895 0.0 103130
10:00+6св34670 0.0 1030586
13:00+10в34585 0.0 10281266
16:00+11в335511 0.0 10261465
19:00+9в22725 0.0 102631
22:00+3в338893 0.0 102738